Location: Ceske Budejovice
(48.9830°N, 14.4670°E)
Time: 19:42:14
(UTC+02:00)

ISS - Pass Details

Date: 01 July 2022
Orbit: 412 x 419 km, 51.6° (Epoch: 09 August)

Event Time Altitude Azimuth Distance (km) Brightness Sun altitude
Exits shadow 03:22:42 19° 198° (SSW) 1,059 -2.3 -11.7°
Maximum altitude 03:24:29 32° 146° (SE) 734 -2.7 -11.6°
Drops below altitude 10° 03:27:33 10° 81° (E) 1,502 -0.3 -11.3°
Sets 03:29:46 0° 71° (ENE) 2,371 1.0 -11.1°
